Weather observations for the past three days for
Arcata / Eureka, Arcata Airport
Imperial (Metric)
Date Time (pdt) Wind (mph) Vis. (mi.) Weather Sky Cond. Temperature (ºF) Relative Humidity Wind Chill (°F) Heat Index (°F) Pressure Precipitation (in)
Air Dwpt 6 hour altimeter (in) sea level (mb) 1 hr 3 hr 6 hr
Max. Min.
24 07:53 SE 3 4.00 Fog/Mist OVC004 54 53.1 97% 30.05 1018.1
24 06:53 SW 3 5.00 Fog/Mist OVC006 53.1 51.1 93% 30.03 1017.5
24 05:53 SE 3 10.00 Fair CLR 50 48.9 96% 30.03 1017.4
24 04:53 Calm 10.00 Fair CLR 51.1 48.9 53.1 50 92% 30.02 1017.0
24 03:53 E 3 10.00 Fair CLR 51.1 48 89% 30 1016.5
24 02:53 SE 3 10.00 Fair CLR 52 48.9 89% 30 1016.3
24 01:53 SE 3 10.00 Fair CLR 53.1 50 89% 29.99 1016.1
24 00:53 SE 6 10.00 Fair CLR 53.1 48.9 86% 30 1016.3
23 23:53 SE 5 10.00 Fair CLR 53.1 48.9 86% 30 1016.5
23 22:53 SE 3 9.00 Fair CLR 53.1 48.9 62.1 53.1 86% 30.01 1016.6
23 21:53 S 5 8.00 Fair CLR 53.1 48.9 86% 30 1016.5
23 20:53 S 6 7.00 Fair CLR 55 48.9 80% 29.99 1016.0
23 19:53 SW 5 6.00 Fair with Haze CLR 55.9 48.9 77% 29.99 1016.0
23 18:53 SW 9 9.00 Fair CLR 61 50 67% 29.97 1015.5
23 17:53 W 6 8.00 Fair CLR 61 50 67% 29.97 1015.4
23 16:53 W 7 8.00 Fair CLR 62.1 51.1 66.9 60.1 67% 29.96 1015.2
23 15:53 W 6 9.00 Fair CLR 63 52 68% 29.96 1014.9
23 14:53 W 7 9.00 Mostly Cloudy BKN027 64 53.1 68% 29.95 1014.6
23 13:53 W 7 8.00 Mostly Cloudy BKN028 64.9 54 68% 29.95 1014.4
23 12:53 SW 8 9.00 Partly Cloudy SCT028 66 53.1 63% 29.94 1014.3
23 11:53 Vrbl 3 6.00 A Few Clouds with Haze FEW028 62.1 53.1 73% 29.94 1014.4
23 10:53 W 6 4.00 Partly Cloudy with Haze SCT013 60.1 53.1 62.1 48.9 78% 29.94 1014.2
23 09:53 W 3 5.00 A Few Clouds with Haze FEW011 60.1 53.1 78% 29.93 1013.9
23 08:53 Calm 10.00 Fair CLR 57.9 53.1 84% 29.93 1014.0
23 07:53 Calm 8.00 Fair CLR 55.9 54 93% 29.93 1013.8
23 06:53 Calm 9.00 Fair CLR 51.1 48.9 92% 29.92 1013.6
23 05:53 Calm 10.00 Fair CLR 50 48 93% 29.92 1013.7
23 04:53 Calm 9.00 Fair CLR 50 48 55 50 93% 29.92 1013.6
23 03:53 Calm 9.00 Fair CLR 50 48 93% 29.92 1013.7
23 02:53 Calm 10.00 Fair CLR 50 48 93% 29.93 1013.9
23 01:53 Calm 10.00 Fair CLR 52 48.9 89% 29.94 1014.2
23 00:53 SE 3 9.00 Fair CLR 53.1 50 89% 29.95 1014.6
22 23:53 SE 6 9.00 Fair CLR 54 50 87% 29.95 1014.7
22 22:53 SE 3 9.00 Fair CLR 55 51.1 63 54 87% 29.96 1014.9
22 21:53 SE 6 10.00 Fair CLR 55.9 50 81% 29.96 1014.9
22 20:53 S 3 6.00 Fair with Haze CLR 55 48.9 80% 29.96 1015.0
22 19:53 Calm 6.00 Fair with Haze CLR 57.9 51.1 78% 29.97 1015.3
22 18:53 NW 9 9.00 Fair CLR 62.1 51.1 67% 29.97 1015.5
22 17:53 NW 14 G 22 9.00 Fair CLR 61 51.1 70% 29.99 1015.8
22 16:53 NW 13 G 21 9.00 Fair CLR 63 52 64 57 68% 30.01 1016.5
22 15:53 NW 12 G 20 10.00 Fair CLR 63 52 68% 30.02 1017.0
22 14:53 NW 10 10.00 Fair CLR 63 54 73% 30.02 1017.0
22 13:53 W 7 10.00 Mostly Cloudy BKN009 63 55 76% 30.02 1017.1
22 12:53 W 7 7.00 Overcast OVC002 59 55 87% 30.02 1017.0
22 11:53 NW 7 5.00 Fog/Mist OVC003 59 55.9 90% 30.01 1016.8
22 10:53 NW 8 4.00 Fog/Mist OVC003 57 55 57.9 55 93% 30.01 1016.6
22 09:53 Calm 6.00 Fog/Mist OVC003 57.9 57 97% 30 1016.3
22 08:53 NW 3 0.75 Fog/Mist VV002 55.9 55 97% 30 1016.3
22 07:53 NW 5 1.50 Fog/Mist OVC004 55.9 54 93% 30 1016.3
22 06:53 NW 3 1.75 Fog/Mist OVC003 55.9 55 97% 29.99 1015.9
22 05:53 NW 3 1.50 Fog/Mist OVC002 55 54 96% 29.99 1015.8
22 04:48 Calm 1.75 Fog/Mist OVC003 55 54 57 55 96% 29.98 1015.7
22 03:53 NW 5 2.50 Fog/Mist OVC007 55 53.1 93% 29.99 1015.9
22 02:53 S 3 7.00 Overcast OVC007 57 54 90% 29.99 1015.8
22 01:53 S 6 10.00 Overcast OVC008 57 54 90% 30.01 1016.5
22 00:53 S 5 10.00 Overcast OVC008 57 54 90% 30.02 1016.9
21 23:53 SE 6 10.00 Overcast OVC009 57 54 90% 30.02 1017.0
21 22:53 S 5 9.00 Overcast OVC009 57 53.1 64 55.9 87% 30.04 1017.6
21 21:53 W 3 8.00 Overcast OVC011 57 54 90% 30.05 1018.1
21 20:53 NW 6 8.00 Mostly Cloudy BKN012 57 53.1 87% 30.06 1018.2
21 19:53 NW 7 10.00 Fair CLR 57.9 53.1 84% 30.07 1018.6
21 18:53 NW 14 10.00 Fair CLR 61 54 78% 30.07 1018.6
21 17:53 NW 14 10.00 Fair CLR 62.1 54 75% 30.08 1019.0
21 16:53 NW 15 10.00 A Few Clouds FEW026 63 55 64.9 57.9 76% 30.08 1019.2
21 15:53 NW 16 10.00 Fair CLR 64 55 73% 30.1 1019.5
21 14:53 NW 15 10.00 Overcast OVC017 64.9 57 76% 30.1 1019.8
21 13:53 NW 18 10.00 Mostly Cloudy BKN020 63 55.9 78% 30.1 1019.7
21 12:53 NW 13 10.00 Overcast OVC021 61 57 87% 30.11 1019.9
21 11:53 NW 10 1.50 Fog/Mist OVC002 57.9 55.9 93% 30.1 1019.8
21 10:53 NW 12 4.00 Fog/Mist OVC002 57.9 55.9 61 57 93% 30.1 1019.6
21 09:53 N 3 10.00 Overcast BKN002 OVC018 59 57.9 96% 30.08 1019.2
21 08:53 NW 6 0.25 Fog VV002 57 55.9 96% 30.08 1018.9
Date Time (pdt) Wind (mph) Vis. (mi.) Weather Sky Cond. Air Dwpt Max. Min. Relative Humidity Wind Chill (°F) Heat Index (°F) altimeter (in) sea level (mb) 1 hr 3 hr 6 hr
6 hour
Temperature (ºF) Pressure Precipitation (in)